time_stamp(utc),avg(mph),gust(mph),direction(deg),12m_air_temp(f),sonic_u(cm/s),sonic_v(cm/s),sonic_w(cm/s),pressure,2m_air_temp(f),pyranometer(W/m^2)
"2022-02-12 00:00:18+00",20.9,22.9,,,-395,-858,-4,1013.36,45,0
"2022-02-12 00:05:18+00",19.6,22.6,,,-400,-789,4,1013.32,45.1,0
"2022-02-12 00:10:18+00",20.0,24.0,,46,-366,-810,-1,1013.28,45,0
"2022-02-12 00:15:18+00",20.8,24.8,,46.1,-399,-842,-20,1013.35,45.2,0
"2022-02-12 00:20:18+00",20.7,22.7,,46.2,-412,-829,10,1013.39,45.4,0
"2022-02-12 00:25:18+00",21.8,25.8,,,-430,-886,2,1013.36,45.4,0
"2022-02-12 00:30:18+00",20.6,24.6,,,-399,-822,3,1013.36,45.3,0
"2022-02-12 00:35:18+00",18.4,21.4,,,-314,-740,5,1013.34,45.3,0
"2022-02-12 00:40:18+00",19.9,21.9,,,-358,-815,-2,1013.37,45.3,0
"2022-02-12 00:45:18+00",18.6,20.6,,,-357,-759,15,1013.38,45.3,0
"2022-02-12 00:50:18+00",18.7,22.7,,46.4,-350,-759,3,1013.36,45.4,0
"2022-02-12 00:55:18+00",21.0,25.0,,,-362,-840,-17,1013.28,45.6,0
"2022-02-12 01:00:18+00",21.6,25.6,,,-415,-881,-4,1013.23,45.9,0
"2022-02-12 01:05:18+00",21.8,23.8,,,-414,-880,-1,1013.36,46,0
"2022-02-12 01:10:18+00",21.0,25.0,,47.1,-411,-854,-3,1013.32,46.1,0
"2022-02-12 01:15:18+00",20.2,23.2,,47.2,-356,-827,3,1013.38,46.1,0
"2022-02-12 01:20:18+00",20.7,23.7,,,-373,-842,7,1013.33,46,0
"2022-02-12 01:25:18+00",24.2,29.2,,,-480,-953,-7,1013.36,46.2,0
"2022-02-12 01:30:18+00",19.4,22.4,,,-366,-807,4,1013.35,46.1,0
"2022-02-12 01:35:18+00",21.2,25.2,,,-387,-874,11,1013.36,45.9,0
"2022-02-12 01:40:18+00",23.5,25.5,,,-441,-943,-2,1013.27,46.1,0
"2022-02-12 01:45:18+00",19.5,23.5,,,-406,-794,11,1013.26,46.1,0
"2022-02-12 01:50:18+00",21.5,26.5,,47.3,-435,-871,4,1013.24,46.3,0
"2022-02-12 01:55:18+00",21.9,24.9,,,-456,-876,5,1013.28,46.2,0
"2022-02-12 02:00:18+00",20.8,25.8,,,-429,-854,13,1013.27,46.2,0
"2022-02-12 02:05:18+00",21.9,26.9,,,-460,-886,11,1013.36,46.4,0
"2022-02-12 02:10:18+00",22.1,26.1,,47.4,-458,-895,-6,1013.38,46.4,0
"2022-02-12 02:15:18+00",20.0,23.0,,,-409,-807,22,1013.38,46.4,0
"2022-02-12 02:20:18+00",22.4,26.4,,,-448,-918,-7,1013.34,46.3,0
"2022-02-12 02:25:18+00",24.0,27.0,,,-439,-960,-2,1013.34,46.4,0
"2022-02-12 02:30:18+00",22.8,27.8,,,-407,-951,0,1013.33,46.3,0
"2022-02-12 02:35:18+00",22.7,24.7,,,-421,-930,-6,1013.3,46.3,0
"2022-02-12 02:40:18+00",21.0,25.0,,,-357,-868,9,1013.27,46.3,0
"2022-02-12 02:45:18+00",20.7,25.7,,,-351,-842,5,1013.27,46.2,0
"2022-02-12 02:50:18+00",22.1,26.1,,,-417,-907,-2,1013.26,46.1,0
"2022-02-12 02:55:18+00",22.3,26.3,,,-373,-915,-15,1013.2,46.2,0
"2022-02-12 03:00:18+00",22.0,25.0,,,-356,-914,6,1013.19,46.1,0
"2022-02-12 03:05:18+00",20.8,22.8,,,-379,-850,8,1013.19,46.2,0
"2022-02-12 03:10:18+00",23.1,28.1,,,-429,-922,4,1013.16,46.3,0
"2022-02-12 03:15:18+00",21.6,25.6,,47,-381,-874,10,1013.12,46.1,0
"2022-02-12 03:20:18+00",20.7,25.7,,,-392,-848,12,1013.12,46.1,0
"2022-02-12 03:25:18+00",25.3,31.3,,47.3,-454,-1020,-12,1013.01,46.3,0
"2022-02-12 03:30:18+00",21.7,23.7,,,-415,-874,2,1013.01,46.2,0
"2022-02-12 03:35:18+00",21.1,24.1,,,-380,-852,7,1012.98,46.1,0
"2022-02-12 03:40:18+00",22.0,25.0,,,-377,-898,-4,1012.88,46.2,0
"2022-02-12 03:45:18+00",21.6,25.6,,,-363,-884,-1,1012.81,46.1,0
"2022-02-12 03:50:18+00",22.5,26.5,,47.1,-370,-919,4,1012.74,46.2,0
"2022-02-12 03:55:18+00",22.9,27.9,,,-354,-949,-1,1012.72,46.2,0
"2022-02-12 04:00:18+00",22.2,25.2,,,-361,-924,-1,1012.71,46.2,0
"2022-02-12 04:05:18+00",22.2,25.2,,,-374,-898,-1,1012.64,46.1,0
"2022-02-12 04:10:18+00",21.8,26.8,,,-376,-905,3,1012.59,46.1,0
"2022-02-12 04:15:18+00",21.7,26.7,,47.1,-388,-890,-4,1012.52,46.1,0
"2022-02-12 04:20:18+00",21.0,25.0,,,-362,-856,12,1012.52,46.1,0
"2022-02-12 04:25:18+00",20.8,24.8,,,-331,-852,-5,1012.44,46.3,0
"2022-02-12 04:30:18+00",23.1,27.1,,,-419,-951,0,1012.46,46.2,0
"2022-02-12 04:35:18+00",21.2,24.2,,,-402,-879,-2,1012.51,46,0
"2022-02-12 04:40:18+00",19.7,23.7,,,-408,-807,5,1012.47,45.9,0
"2022-02-12 04:45:18+00",17.8,20.8,,,-323,-729,20,1012.43,45.7,0
"2022-02-12 04:50:18+00",18.3,20.3,,,-390,-734,7,1012.46,45.6,0
"2022-02-12 04:55:18+00",17.4,19.4,,,-330,-703,5,1012.42,45.4,0
"2022-02-12 05:00:18+00",17.3,21.3,,46.2,-345,-709,-4,1012.57,45.3,0
"2022-02-12 05:05:18+00",18.5,20.5,,,-370,-750,-1,1012.41,45.2,0
"2022-02-12 05:10:18+00",19.1,21.1,,,-362,-774,-4,1012.38,45.2,0
"2022-02-12 05:15:18+00",17.6,20.6,,,-343,-699,1,1012.47,45,0
"2022-02-12 05:20:18+00",16.3,18.3,,,-307,-669,9,1012.4,44.8,0
"2022-02-12 05:25:18+00",15.9,17.9,,,-334,-635,-3,1012.3,44.8,0
"2022-02-12 05:30:18+00",15.2,17.2,,,-308,-610,11,1012.31,44.8,0
"2022-02-12 05:35:18+00",15.2,17.2,,,-278,-619,-8,1012.2,44.9,0
"2022-02-12 05:40:18+00",14.7,16.7,,,-269,-593,-5,1012.21,44.7,0
"2022-02-12 05:45:18+00",14.5,15.5,,,-298,-581,-6,1012.17,44.5,0
"2022-02-12 05:50:18+00",14.3,16.3,,,-288,-581,-2,1012.14,44.4,0
"2022-02-12 05:55:18+00",15.9,17.9,,,-354,-643,0,1012.18,44.5,0
"2022-02-12 06:00:18+00",16.7,18.7,,45.6,-360,-679,3,1012.08,44.5,0
"2022-02-12 06:05:18+00",16.1,18.1,,,-380,-637,4,1012.1,44.4,0
"2022-02-12 06:10:18+00",15.1,17.1,,,-395,-579,13,1012.04,44.4,0
"2022-02-12 06:15:18+00",15.6,17.6,,,-408,-598,6,1012.03,44.3,0
"2022-02-12 06:20:18+00",16.7,18.7,,,-404,-656,9,1012,44.5,0
"2022-02-12 06:25:18+00",15.8,17.8,,,-374,-626,11,1011.94,44.4,0
"2022-02-12 06:30:18+00",15.6,17.6,,,-364,-624,3,1011.97,44.2,0
"2022-02-12 06:35:18+00",15.6,17.6,,,-373,-619,14,1011.98,44,0
"2022-02-12 06:40:18+00",18.1,20.1,,,-445,-717,5,1011.89,44.2,0
"2022-02-12 06:45:18+00",16.9,20.9,,,-438,-665,10,1011.96,44.2,0
"2022-02-12 06:50:18+00",19.4,22.4,,,-490,-748,-6,1011.98,44.4,0
"2022-02-12 06:55:18+00",20.3,22.3,,,-488,-799,9,1011.99,44.6,0
"2022-02-12 07:00:18+00",19.2,22.2,,45.6,-445,-761,1,1011.99,44.6,0
"2022-02-12 07:05:18+00",19.6,23.6,,,-514,-762,17,1011.96,44.6,0
"2022-02-12 07:10:18+00",20.4,23.4,,45.7,-538,-784,7,1011.93,44.6,0
"2022-02-12 07:15:18+00",20.7,24.7,,,-547,-792,18,1011.94,44.8,0
"2022-02-12 07:20:18+00",19.8,21.8,,,-502,-760,16,1011.91,44.7,0
"2022-02-12 07:25:18+00",17.0,20.0,,45.3,-412,-664,9,1011.91,44.4,0
"2022-02-12 07:30:18+00",17.4,20.4,,,-414,-679,12,1011.93,44.4,0
"2022-02-12 07:35:18+00",17.3,20.3,,,-443,-676,19,1011.9,44.6,0
"2022-02-12 07:40:18+00",17.0,19.0,,,-449,-657,24,1011.83,44.6,0
"2022-02-12 07:45:18+00",18.8,20.8,,,-507,-709,2,1011.81,44.5,0
"2022-02-12 07:50:18+00",17.3,19.3,,,-475,-661,11,1011.81,44.5,0
"2022-02-12 07:55:18+00",17.2,19.2,,,-464,-638,6,1011.75,44.6,0
"2022-02-12 08:00:18+00",18.0,22.0,,,-475,-665,9,1011.72,44.7,0
"2022-02-12 08:05:18+00",17.4,19.4,,45.8,-476,-647,15,1011.75,44.7,0
"2022-02-12 08:10:18+00",16.9,18.9,,,-453,-634,17,1011.67,44.6,0
"2022-02-12 08:15:18+00",17.7,20.7,,45.7,-498,-666,7,1011.66,44.6,0
"2022-02-12 08:20:18+00",15.5,18.5,,,-359,-609,14,1011.67,44.4,0
"2022-02-12 08:25:18+00",16.1,18.1,,,-383,-638,6,1011.61,44.4,0
"2022-02-12 08:30:18+00",14.6,16.6,,,-315,-581,5,1011.6,44.4,0
"2022-02-12 08:35:18+00",15.8,18.8,,,-338,-631,-7,1011.6,44.3,0
"2022-02-12 08:40:18+00",15.9,18.9,,45.7,-353,-630,-5,1011.61,44.4,0
"2022-02-12 08:45:18+00",15.8,17.8,,,-348,-628,16,1011.46,44.4,0
"2022-02-12 08:50:18+00",15.9,18.9,,45.5,-332,-643,16,1011.48,44.3,0
"2022-02-12 08:55:18+00",16.2,19.2,,45.6,-346,-638,10,1011.48,44.4,0
"2022-02-12 09:00:18+00",15.3,17.3,,,-292,-624,5,1011.38,44.3,0
"2022-02-12 09:05:18+00",15.2,18.2,,,-293,-617,7,1011.39,44,0
"2022-02-12 09:10:18+00",14.0,17.0,,,-216,-579,9,1011.38,43.9,0
"2022-02-12 09:15:18+00",14.0,16.0,,,-208,-571,7,1011.36,43.5,0
"2022-02-12 09:20:18+00",16.0,19.0,,,-260,-647,2,1011.36,43.5,0
"2022-02-12 09:25:18+00",16.1,17.1,,,-296,-651,1,1011.37,43.5,0
"2022-02-12 09:30:18+00",16.4,20.4,,,-359,-662,11,1011.47,43.5,0
"2022-02-12 09:35:18+00",17.6,19.6,,,-378,-712,13,1011.38,43.8,0
"2022-02-12 09:40:18+00",16.4,19.4,,,-348,-666,15,1011.42,43.7,0
"2022-02-12 09:45:18+00",15.8,17.8,,44.8,-338,-635,13,1011.42,43.7,0
"2022-02-12 09:50:18+00",15.7,17.7,,,-338,-632,11,1011.38,43.7,0
"2022-02-12 09:55:18+00",16.4,18.4,,,-342,-660,-1,1011.45,43.7,0
"2022-02-12 10:00:18+00",15.6,18.6,,45,-340,-626,5,1011.45,43.8,0
"2022-02-12 10:05:18+00",15.5,17.5,,,-368,-610,4,1011.56,43.8,0
"2022-02-12 10:10:18+00",15.1,17.1,,,-375,-583,10,1011.59,43.8,0
"2022-02-12 10:15:18+00",16.2,18.2,,,-411,-629,5,1011.57,43.7,0
"2022-02-12 10:20:18+00",15.8,18.8,,,-386,-614,0,1011.53,43.6,0
"2022-02-12 10:25:18+00",16.3,18.3,,,-437,-615,4,1011.47,43.7,0
"2022-02-12 10:30:18+00",17.8,19.8,,,-445,-688,6,1011.46,43.8,0
"2022-02-12 10:35:18+00",17.6,19.6,,,-437,-691,4,1011.44,43.7,0
"2022-02-12 10:40:18+00",15.2,17.2,,,-362,-600,13,1011.46,43.5,0
"2022-02-12 10:45:18+00",17.7,19.7,,,-439,-689,2,1011.44,43.6,0
"2022-02-12 10:50:18+00",17.2,19.2,,,-435,-679,-6,1011.52,43.6,0
"2022-02-12 10:55:18+00",16.8,19.8,,,-463,-641,14,1011.53,43.7,0
"2022-02-12 11:00:18+00",15.6,17.6,,,-393,-602,0,1011.48,43.4,0
"2022-02-12 11:05:18+00",14.8,16.8,,,-406,-550,8,1011.59,43.2,0
"2022-02-12 11:10:18+00",14.7,16.7,,,-423,-530,6,1011.65,43.4,0
"2022-02-12 11:15:18+00",15.2,17.2,,,-446,-524,1,1011.65,43.5,0
"2022-02-12 11:20:18+00",15.9,17.9,,,-450,-578,12,1011.61,43.7,0
"2022-02-12 11:25:18+00",14.4,17.4,,,-408,-537,16,1011.69,43.7,0
"2022-02-12 11:30:18+00",14.8,16.8,,44.7,-431,-529,2,1011.73,43.6,0
"2022-02-12 11:35:18+00",15.2,17.2,,,-446,-529,12,1011.79,43.5,0
"2022-02-12 11:40:18+00",14.5,16.5,,44.6,-376,-553,1,1011.75,43.4,0
"2022-02-12 11:45:18+00",13.6,15.6,,,-385,-495,5,1011.7,43.2,0
"2022-02-12 11:50:18+00",14.2,16.2,,44.4,-379,-539,2,1011.62,43.1,0
"2022-02-12 11:55:18+00",14.7,16.7,,,-393,-552,4,1011.63,43.3,0
"2022-02-12 12:00:18+00",14.2,17.2,,,-353,-562,15,1011.62,43.5,0
"2022-02-12 12:05:18+00",15.2,17.2,,,-335,-607,7,1011.61,43.7,0
"2022-02-12 12:10:18+00",14.6,16.6,,,-426,-515,10,1011.82,43.9,0
"2022-02-12 12:15:18+00",10.8,11.8,,,-304,-396,8,1011.94,43.8,0
"2022-02-12 12:20:18+00",10.1,11.1,,,-305,-317,8,1012.03,43.6,0
"2022-02-12 12:25:18+00",11.1,12.1,,,-391,-305,16,1012.15,43.5,0
"2022-02-12 12:30:18+00",10.7,11.7,,,-408,-279,14,1012.23,43.6,0.6
"2022-02-12 12:35:18+00",10.1,11.1,,44.5,-418,-252,16,1012.39,43.8,1.2
"2022-02-12 12:40:18+00",9.2,10.2,,44.2,-378,-230,7,1012.26,44.2,7.8
"2022-02-12 12:45:18+00",10.7,12.7,,,-355,-315,6,1012.31,44.5,13.3
"2022-02-12 12:50:18+00",10.6,12.6,,,-329,-325,-3,1012.5,44.6,20.9
"2022-02-12 12:55:18+00",10.1,12.1,,,-334,-289,-5,1012.54,45,31.2
"2022-02-12 13:00:18+00",11.2,12.2,,,-347,-354,1,1012.58,45.3,40.3
"2022-02-12 13:05:18+00",10.9,13.9,,,-338,-350,14,1012.64,45.4,48.9
"2022-02-12 13:10:18+00",10.7,12.7,,44.9,-445,-183,11,1013,45.9,56
"2022-02-12 13:15:18+00",10.9,12.9,,,-472,-77,19,1013.25,46.2,63.4
"2022-02-12 13:20:18+00",9.8,11.8,,,-386,-180,7,1013.22,46.6,71.5
"2022-02-12 13:25:18+00",10.5,12.5,,,-427,-238,6,1013.27,47,81.6
"2022-02-12 13:30:18+00",10.4,11.4,,,-431,-264,15,1013.38,47.5,94.5
"2022-02-12 13:35:18+00",11.0,13.0,,,-446,-280,15,1013.41,47.9,103.1
"2022-02-12 13:40:18+00",11.2,12.2,,45.7,-418,-295,10,1013.52,48.1,109.7
"2022-02-12 13:45:18+00",10.0,12.0,,,-362,-269,27,1013.54,48.4,118.5
"2022-02-12 13:50:18+00",10.2,12.2,,,-413,-181,2,1013.58,49,131
"2022-02-12 13:55:18+00",10.6,12.6,,,-433,-183,11,1013.65,49.9,147.2
"2022-02-12 14:00:18+00",11.4,13.4,,,-461,-193,26,1013.64,51,166.7
"2022-02-12 14:05:18+00",14.0,17.0,,,-587,-180,28,1013.75,52.3,189.9
"2022-02-12 14:10:18+00",14.7,16.7,,,-605,-198,33,1013.69,53.6,196.7
"2022-02-12 14:15:18+00",16.3,17.3,,,-684,-195,19,1013.7,54.5,196.8
"2022-02-12 14:20:18+00",12.6,15.6,,,-518,-222,30,1013.79,55.1,180.4
"2022-02-12 14:25:18+00",12.8,14.8,,,-530,-158,21,1013.68,55.7,168.4
"2022-02-12 14:30:18+00",13.6,15.6,,,-566,-193,22,1013.64,56.2,165.8
"2022-02-12 14:35:18+00",13.7,15.7,,53.8,-578,-154,18,1013.65,56.4,173.8
"2022-02-12 14:40:18+00",14.0,16.0,,,-599,-122,34,1013.61,56.5,185.9
"2022-02-12 14:45:18+00",15.7,17.7,,,-696,-73,26,1013.68,56.5,194.1
"2022-02-12 14:50:18+00",14.9,17.9,,,-650,-96,38,1013.62,57,200
"2022-02-12 14:55:18+00",15.1,17.1,,,-653,-81,40,1013.87,56.9,203.9
"2022-02-12 15:00:18+00",12.7,13.7,,,-545,-109,47,1013.87,57.1,209.7
"2022-02-12 15:05:18+00",14.6,17.6,,,-671,-64,16,1013.92,57.2,216.7
"2022-02-12 15:10:18+00",16.8,20.8,,,-753,18,-5,1013.95,57.4,222.3
"2022-02-12 15:15:18+00",13.4,14.4,,,-591,43,40,1013.88,57.6,227.9
"2022-02-12 15:20:18+00",13.2,15.2,,,-592,34,23,1013.84,57.6,232.4
"2022-02-12 15:25:18+00",14.0,16.0,,,-623,38,42,1013.86,57.5,237.2
"2022-02-12 15:30:18+00",11.9,13.9,,,-545,46,38,1013.9,57.7,243.9
"2022-02-12 15:35:18+00",14.7,16.7,,,-664,156,35,1014.03,57.6,246.9
"2022-02-12 15:40:18+00",16.0,19.0,,54.9,-713,165,39,1014.03,57.2,252.9
"2022-02-12 15:45:18+00",16.5,18.5,,,-729,174,36,1014.13,57.1,213.5
"2022-02-12 15:50:18+00",14.0,15.0,,,-635,131,32,1014.13,57.2,264.7
"2022-02-12 15:55:18+00",11.5,13.5,,,-516,81,29,1013.97,57.6,241.6
"2022-02-12 16:00:18+00",13.2,15.2,,,-580,131,35,1014.02,57.9,270.4
"2022-02-12 16:05:18+00",14.4,15.4,,,-644,126,35,1013.96,58,274
"2022-02-12 16:10:18+00",13.4,14.4,,,-602,122,31,1014.08,58.3,277.6
"2022-02-12 16:15:18+00",13.8,14.8,,56.3,-625,129,31,1014.15,58.5,285.6
"2022-02-12 16:20:18+00",15.2,17.2,,,-638,246,27,1014.11,58.8,304.8
"2022-02-12 16:25:18+00",14.5,16.5,,,-644,175,27,1014.12,58.5,204.5
"2022-02-12 16:30:18+00",14.2,17.2,,,-596,266,43,1014.11,58,301.2
"2022-02-12 16:35:18+00",16.4,19.4,,,-677,315,42,1014.04,58.6,305.8
"2022-02-12 16:40:18+00",16.4,18.4,,,-681,313,15,1014.07,59,302.8
"2022-02-12 16:45:18+00",15.3,17.3,,,-638,299,51,1014.04,59.1,302.5
"2022-02-12 16:50:18+00",15.7,16.7,,,-657,248,45,1014.13,59.4,302.9
"2022-02-12 16:55:18+00",16.7,18.7,,,-702,308,41,1014.13,59.7,301.1
"2022-02-12 17:00:18+00",14.1,16.1,,,-588,257,30,1014.18,59.8,302.5
"2022-02-12 17:05:18+00",14.9,16.9,,,-644,215,30,1014.14,59.8,304.5
"2022-02-12 17:10:18+00",14.1,16.1,,,-624,186,23,1014.17,60,303.2
"2022-02-12 17:15:18+00",13.4,16.4,,,-558,226,38,1014.04,59.9,302.6
"2022-02-12 17:20:18+00",12.0,14.0,,,-509,190,56,1014.03,59.9,303.3
"2022-02-12 17:25:18+00",12.8,16.8,,,-570,206,50,1014.07,60.3,300.4
"2022-02-12 17:30:18+00",12.1,14.1,,,-496,215,56,1013.94,60.6,301.7
"2022-02-12 17:35:18+00",14.6,16.6,,,-625,240,31,1013.99,60.4,300.5
"2022-02-12 17:40:18+00",14.0,16.0,,,-580,276,43,1013.77,60.5,300.5
"2022-02-12 17:45:18+00",12.7,13.7,,,-515,276,24,1013.63,60.6,298.9
"2022-02-12 17:50:18+00",12.5,14.5,,,-505,254,18,1013.6,60.6,297.5
"2022-02-12 17:55:18+00",11.9,12.9,,,-492,203,5,1013.53,61,294.1
"2022-02-12 18:00:18+00",10.7,12.7,,,-459,174,33,1013.51,61.3,289.6
"2022-02-12 18:05:18+00",10.9,13.9,,,-449,162,46,1013.38,61.3,288.7
"2022-02-12 18:10:18+00",12.5,14.5,,,-497,276,38,1013.43,61.4,287.3
"2022-02-12 18:15:18+00",16.5,19.5,,,-682,295,26,1013.42,61.4,284.7
"2022-02-12 18:20:18+00",15.4,18.4,,,-637,267,42,1013.43,61.3,279.8
"2022-02-12 18:25:18+00",11.7,15.7,,,-483,220,72,1013.47,61.4,275.6
"2022-02-12 18:30:18+00",14.7,17.7,,,-618,290,20,1013.41,61.3,274.3
"2022-02-12 18:35:18+00",14.0,16.0,,,-538,361,42,1013.46,61,268.8
"2022-02-12 18:40:18+00",14.2,15.2,,,-552,337,13,1013.48,60.9,264.9
"2022-02-12 18:45:18+00",15.2,17.2,,,-625,293,18,1013.5,60.8,264.2
"2022-02-12 18:50:18+00",13.3,15.3,,,-560,240,28,1013.47,60.9,213.8
"2022-02-12 18:55:18+00",14.0,16.0,,,-595,192,43,1013.45,60.7,89.6
"2022-02-12 19:00:18+00",13.3,15.3,,,-572,183,23,1013.65,60.4,136.2
"2022-02-12 19:05:18+00",13.8,15.8,,,-610,154,36,1013.85,59.8,75
"2022-02-12 19:10:18+00",13.2,15.2,,,-580,56,26,1013.71,59.1,124.9
"2022-02-12 19:15:18+00",13.5,15.5,,,-607,83,25,1013.71,59.3,149
"2022-02-12 19:20:18+00",13.2,17.2,,,-596,18,37,1013.72,59.3,91.3
"2022-02-12 19:25:18+00",16.4,18.4,,58.4,-735,115,54,1013.81,59.3,255.4
"2022-02-12 19:30:18+00",14.7,16.7,,,-638,166,45,1013.78,59.6,121
"2022-02-12 19:35:18+00",14.9,16.9,,,-647,218,21,1013.91,58.9,81.4
"2022-02-12 19:40:18+00",14.6,18.6,,,-640,254,26,1014.02,58.2,74.7
"2022-02-12 19:45:18+00",16.3,18.3,,,-664,340,23,1014.22,58,68
"2022-02-12 19:50:18+00",14.5,16.5,,57.4,-602,290,24,1014.22,57.7,61.1
"2022-02-12 19:55:18+00",17.1,18.1,,,-688,355,32,1014.37,56.8,52
"2022-02-12 20:00:18+00",16.7,18.7,,,-695,321,30,1014.36,56.9,80.5
"2022-02-12 20:05:18+00",17.3,19.3,,,-680,369,30,1014.37,56.7,46.1
"2022-02-12 20:10:18+00",16.7,18.7,,,-658,367,36,1014.39,55.8,24.8
"2022-02-12 20:15:18+00",15.9,16.9,,,-598,412,34,1014.47,55.3,63.4
"2022-02-12 20:20:18+00",14.4,16.4,,,-511,413,42,1014.45,55.5,8
"2022-02-12 20:25:18+00",18.1,19.1,,,-587,564,48,1014.48,55.1,45.3
"2022-02-12 20:30:18+00",15.7,16.7,,,-588,406,35,1014.58,55.6,41.6
"2022-02-12 20:35:18+00",14.3,15.3,,,-582,297,22,1014.66,55,52.5
"2022-02-12 20:40:18+00",14.6,16.6,,,-570,344,29,1014.67,54.6,0.3
"2022-02-12 20:45:18+00",16.3,17.3,,,-637,371,31,1014.7,54.3,11.1
"2022-02-12 20:50:18+00",12.7,14.7,,,-505,290,18,1014.69,54.5,7.9
"2022-02-12 20:55:18+00",12.3,13.3,,,-512,228,23,1014.86,54.5,6.1
"2022-02-12 21:00:18+00",13.9,15.9,,,-547,320,24,1014.83,54.4,0.2
"2022-02-12 21:05:18+00",13.9,15.9,,,-456,419,33,1015.07,54.2,0.7
"2022-02-12 21:10:18+00",12.8,13.8,,,-440,376,27,1015.2,54.2,0.9
"2022-02-12 21:15:18+00",12.5,13.5,,,-466,347,39,1015.37,54,0.2
"2022-02-12 21:20:18+00",13.5,14.5,,,-546,290,18,1015.47,53.8,0.1
"2022-02-12 21:25:18+00",12.5,13.5,,55.2,-513,251,29,1015.39,53.3,0
"2022-02-12 21:30:18+00",13.1,14.1,,,-495,338,33,1015.52,53,0
"2022-02-12 21:35:18+00",12.1,12.1,,54.7,-401,363,28,1015.48,52.7,0
"2022-02-12 21:40:18+00",13.1,14.1,,,-401,433,26,1015.45,52.5,0
"2022-02-12 21:45:18+00",13.3,14.3,,,-452,394,31,1015.56,52.7,0
"2022-02-12 21:50:18+00",12.1,15.1,,,-473,300,26,1015.7,52.3,0
"2022-02-12 21:55:18+00",12.5,13.5,,,-494,294,24,1015.68,52.3,0
"2022-02-12 22:00:18+00",14.6,15.6,,,-586,320,25,1015.67,52,0
"2022-02-12 22:05:18+00",14.1,15.1,,,-557,304,30,1015.7,51.8,0
"2022-02-12 22:10:18+00",12.9,13.9,,,-523,241,22,1015.66,51.5,0
"2022-02-12 22:15:18+00",12.4,13.4,,,-496,261,20,1015.79,51.3,0
"2022-02-12 22:20:18+00",13.3,14.3,,53.8,-528,299,19,1015.92,50.9,0
"2022-02-12 22:25:18+00",11.7,11.7,,,-466,262,22,1016.02,50.8,0
"2022-02-12 22:30:18+00",10.5,11.5,,,-410,245,20,1016.12,50.5,0
"2022-02-12 22:35:18+00",9.8,9.8,,,-392,217,22,1016.25,50.2,0
"2022-02-12 22:40:18+00",9.1,9.1,,,-344,217,15,1016.35,49.9,0
"2022-02-12 22:45:18+00",8.3,9.3,,,-309,199,15,1016.48,49.6,0
"2022-02-12 22:50:18+00",8.3,9.3,,,-304,212,7,1016.51,49.3,0
"2022-02-12 22:55:18+00",6.5,7.5,,,-245,158,7,1016.63,49,0
"2022-02-12 23:00:18+00",7.3,8.3,,,-256,198,9,1016.73,48.7,0
"2022-02-12 23:05:18+00",7.8,8.8,,52.8,-254,234,9,1016.78,48.7,0
"2022-02-12 23:10:18+00",7.8,9.8,,,-263,219,7,1016.88,48.6,0
"2022-02-12 23:15:18+00",7.6,8.6,,,-263,219,4,1016.87,48.6,0
"2022-02-12 23:20:18+00",6.6,7.6,,,-262,135,5,1017.03,48.5,0
"2022-02-12 23:25:18+00",8.8,9.8,,,-338,198,8,1017.03,48.3,0
"2022-02-12 23:30:18+00",10.0,11.0,,,-378,243,9,1017.09,48.3,0
"2022-02-12 23:35:18+00",10.0,11.0,,,-375,239,11,1017.2,48.4,0
"2022-02-12 23:40:18+00",10.5,11.5,,,-394,259,16,1017.34,48.3,0
"2022-02-12 23:45:18+00",10.7,10.7,,,-395,277,18,1017.34,48.3,0
"2022-02-12 23:50:18+00",10.8,11.8,,,-369,314,21,1017.39,48.2,0
"2022-02-12 23:55:18+00",9.6,10.6,,,-328,277,21,1017.45,48.1,0
